Overview Statistics Trail Chart Weather Telemetry Raw packets
 

This is the latest recevied weather packets stored in our database for station/object LU1MQF-10. If no packets are shown the sender has not sent any weather packets the latest 10 day(s).

<< 9 10 11 12 13 14 15 >>
Time Temp. Humidity Pressure Rain* Wind** Luminosity Snow
1777917843 20° C 30% 1012.2 hPa - - - -
1777916947 19.44° C 30% 1012.5 hPa - - - -
1777916943 19.44° C 30% 1012.5 hPa - - - -
1777916046 19.44° C 29% 1012.7 hPa - - - -
1777916042 19.44° C 29% 1012.7 hPa - - - -
1777915146 19.44° C 28% 1012.7 hPa - - - -
1777915142 19.44° C 28% 1012.7 hPa - - - -
1777914246 18.89° C 28% 1013.1 hPa - - - -
1777914242 18.89° C 28% 1013.1 hPa - - - -
1777913346 18.89° C 28% 1013.3 hPa - - - -
1777913342 18.89° C 28% 1013.3 hPa - - - -
1777912447 18.33° C 29% 1013.6 hPa - - - -
1777912442 18.33° C 29% 1013.6 hPa - - - -
1777911552 18.33° C 31% 1014 hPa - - - -
1777911542 18.33° C 31% 1014 hPa - - - -
1777910645 18.33° C 28% 1014 hPa - - - -
1777910642 18.33° C 28% 1014 hPa - - - -
1777909745 18.33° C 31% 1014.2 hPa - - - -
1777909741 18.33° C 31% 1014.2 hPa - - - -
1777908845 17.78° C 30% 1014.5 hPa - - - -
1777908841 17.78° C 30% 1014.5 hPa - - - -
1777907945 17.22° C 31% 1014.7 hPa - - - -
1777907941 17.22° C 31% 1014.7 hPa - - - -
1777907045 17.22° C 34% 1015 hPa - - - -
1777907041 17.22° C 34% 1015 hPa - - - -

* Rain since midnight (hover to see other rain measurements)
** Current wind speed in m/s (hover to see current wind gust speed)